Location: LDNL
(36.4545°S, 141.6685°E)
Time: 10:35:15
(UTC+10:00)

Courier 1B - Visible Passes

Search period start: 08 August 2022 00:00
Search period end: 18 August 2022 00:00
Orbit: 963 x 1209 km, 28.3° (Epoch: 07 August)

Date Brightness Start Highest point End Pass type
(mag) Time Alt. Az. Time Alt. Az. Time Alt. Az.
08 Aug 10.1 03:21:00 15° ENE 03:21:00 15° ENE 03:22:14 10° ENE visible
08 Aug 8.5 05:07:54 38° NNW 05:08:49 39° NNW 05:15:35 10° NE visible
08 Aug 9.4 06:57:06 10° WNW 07:02:14 20° NNW 07:07:11 10° NNE visible
09 Aug 9.0 04:17:27 34° NNE 04:17:27 34° NNE 04:22:03 10° ENE visible
09 Aug 9.1 06:04:20 16° WNW 06:08:35 25° NNW 06:14:21 10° NNE visible
10 Aug 10.0 03:27:01 16° ENE 03:27:01 16° ENE 03:28:24 10° ENE visible
10 Aug 8.8 05:13:55 30° NNW 05:14:52 31° NNW 05:21:14 10° NE visible
11 Aug 9.1 04:23:31 29° NNE 04:23:31 29° NNE 04:27:53 10° NE visible
11 Aug 9.5 06:10:25 11° WNW 06:14:29 17° NNW 06:18:57 10° N visible
12 Aug 10.0 03:33:10 15° NE 03:33:10 15° NE 03:34:22 10° NE visible
12 Aug 9.2 05:20:03 22° NNW 05:20:48 22° NNW 05:26:20 10° NNE visible
13 Aug 9.4 04:29:44 22° N 04:29:44 22° N 04:33:19 10° NNE visible
14 Aug 10.1 03:39:26 12° NE 03:39:26 12° NE 03:40:02 10° NE visible
14 Aug 9.6 05:26:20 14° NNW 05:26:41 14° NNW 05:30:16 10° N visible
15 Aug 9.8 04:36:04 15° N 04:36:04 15° N 04:38:01 10° NNE visible
15 Aug 9.7 20:02:03 10° N 20:03:35 12° NNE 20:03:35 12° NNE visible
16 Aug 9.7 20:58:37 10° NNW 21:00:16 16° NNW 21:00:16 16° NNW visible
17 Aug 9.2 20:05:47 10° NNW 20:10:02 20° NNE 20:10:02 20° NNE visible
